Temperature
8 7 7 7 7 8 8 8 8 8 8 8 7 7 8 9 9 9 9 10 10 11 11 11 11 11 11 11 11 11 10 10 10 10 10 10 10 10 10 10 11 11 11 11
7 7 8 8 8 8 8 8 7 8 8 8 7 7 8 8 8 9 9 10 10 11 11 11 11 11 11 11 11 10 10 10 10 10 10 10 10 10 10 10 10 11 11 11
7 8 8 8 8 7 7 7 7 8 7 7 7 7 8 8 8 9 9 10 10 11 11 11 11 11 11 11 10 10 10 10 10 10 10 10 10 10 10 10 10 10 10 10
7 7 8 8 8 8 7 8 8 8 7 6 7 7 8 7 7 8 8 9 10 10 10 10 10 10 11 10 10 10 10 10 10 10 10 10 9 10 10 10 10 10 10 10
7 7 8 8 8 8 7 8 7 7 7 6 6 6 7 7 7 8 7 8 9 10 10 10 11 11 10 10 10 10 10 10 10 10 10 10 9 9 9 9 10 10 10 10
7 7 8 8 8 8 7 7 7 6 6 7 7 6 7 7 7 8 7 8 9 10 10 10 10 10 10 10 10 9 9 9 9 9 9 9 9 9 9 9 9 9 9 9
7 7 7 8 8 7 7 7 7 7 6 7 6 6 7 7 7 7 7 8 9 9 9 10 10 10 10 10 9 9 9 9 9 9 9 9 9 9 9 9 9 9 9 9
7 7 7 7 8 7 7 7 7 7 7 6 6 6 7 7 7 7 8 8 8 9 9 9 9 9 9 9 9 9 9 9 9 9 9 9 9 8 8 8 8 8 8 8
7 7 7 7 7 7 7 6 7 6 6 6 6 6 6 7 6 6 6 7 8 9 9 9 9 9 9 9 9 9 9 9 8 8 8 8 8 8 8 8 8 8 8 8
7 7 7 7 7 7 7 6 5 6 7 7 7 6 7 7 6 6 5 6 7 8 8 9 9 9 9 9 9 9 8 8 8 8 8 8 8 8 8 8 8 8 8 8
6 6 6 6 6 6 6 6 6 5 5 6 7 7 7 6 6 5 5 6 7 7 8 8 8 8 8 8 8 8 8 8 8 8 8 8 8 7 7 7 7 7 7 7
5 5 5 5 6 6 6 6 5 6 5 4 5 7 7 5 5 5 5 6 7 7 7 8 8 8 8 8 8 8 8 8 7 7 7 7 7 7 7 7 7 7 7 7
5 5 5 6 6 5 5 5 5 5 4 4 4 7 6 5 5 6 6 6 7 7 7 7 7 7 7 7 7 7 7 7 7 7 7 7 7 7 7 7 6 6 6 6
5 4 5 6 6 5 5 5 4 4 4 4 4 6 6 6 5 5 6 6 7 7 7 7 7 7 7 7 7 7 7 7 6 6 7 6 6 6 6 6 6 6 6 6
4 4 4 4 5 4 4 4 4 4 4 4 5 5 6 6 5 5 6 6 6 6 6 7 7 7 7 7 7 6 6 6 6 6 6 6 6 6 6 6 6 5 5 5
3 3 3 3 4 4 4 4 4 4 4 4 4 5 5 5 5 5 5 5 5 5 6 6 6 6 6 6 6 6 6 6 6 6 6 6 5 5 5 5 5 5 5 5
2 2 3 3 3 3 3 4 4 3 3 4 4 5 4 4 4 4 4 5 5 5 6 6 6 6 6 6 6 6 6 5 5 5 5 5 5 5 5 5 4 4 4 4
1 2 2 2 2 3 4 4 3 3 3 3 3 3 3 3 4 4 5 5 5 5 6 6 6 6 5 5 5 5 5 5 5 5 5 5 4 4 4 4 4 4 4 4
1 2 2 2 2 2 3 3 2 2 2 2 2 2 3 3 3 3 4 5 5 5 5 5 5 5 5 5 5 4 5 5 4 4 4 4 4 4 4 4 4 3 3 3
1 1 1 1 2 2 3 3 3 3 2 2 2 2 2 2 1 2 4 4 4 4 5 5 5 4 4 4 4 4 4 4 4 4 4 4 3 3 3 3 3 3 3 3
0 0 1 1 2 2 2 2 3 3 3 2 2 2 2 1 2 3 3 3 4 4 4 4 4 4 4 4 3 3 3 3 3 3 3 3 3 3 3 3 2 2 2 2
0 0 0 1 1 2 2 2 2 2 2 2 2 2 2 2 2 2 2 3 3 3 3 3 3 3 3 3 3 3 3 3 3 2 2 2 2 2 2 2 2 2 2 2
-0 0 0 0 1 1 1 2 2 2 2 2 2 2 2 2 2 2 2 2 2 2 2 2 2 2 2 2 2 2 2 2 2 2 2 2 2 2 2 1 1 1 1 1
-1 -1 -1 -1 -0 0 1 1 2 2 2 2 2 1 1 1 1 1 1 1 1 1 1 2 2 2 2 2 1 1 1 1 1 1 1 1 1 1 1 1 1 1 0 0
-1 -1 -1 -1 -1 -1 0 1 1 1 1 1 1 1 1 1 1 1 1 1 1 1 1 1 1 1 1 1 1 1 1 1 1 1 0 0 0 0 0 0 0 -0 -0 -0
-2 -2 -1 -1 -0 -1 -0 0 0 0 0 0 0 0 0 0 0 0 -0 -0 -0 0 0 0 0 0 0 0 0 0 -0 -0 -0 -0 -0 -0 -0 -0 -0 -1 -1 -1 -1 -1
Wind_Speed
1 2 4 7 7 4 3 3 6 6 4 3 7 12 13 10 6 7 7 7 7 8 6 4 4 3 3 3 5 5 5 4 4 3 3 2 2 2 1 1 2 4 5 5
2 5 7 4 3 3 3 5 6 6 2 3 7 12 12 8 7 7 8 8 8 6 3 2 2 3 4 5 6 6 6 6 5 3 3 2 2 2 2 1 1 3 4 5
6 4 2 4 4 4 5 6 6 5 4 3 5 9 7 5 4 5 5 6 6 7 6 4 3 3 3 4 6 6 6 6 5 4 3 3 3 2 1 1 1 1 4 5
5 4 3 3 4 6 6 6 6 4 2 4 1 6 8 5 4 5 5 5 5 5 4 4 4 4 4 5 5 5 5 5 5 5 5 5 3 2 2 2 2 2 3 4
4 3 3 5 5 6 5 2 3 3 3 3 2 3 9 3 4 6 6 5 4 4 4 5 4 4 3 3 4 4 4 4 4 4 5 5 3 2 2 2 3 2 2 3
5 3 3 4 2 4 2 2 2 3 2 3 4 5 7 4 6 5 5 5 4 3 3 3 2 2 2 3 3 4 4 4 4 4 4 5 4 3 3 2 3 2 1 1
4 3 3 3 1 1 3 3 3 3 2 6 2 4 9 7 5 5 5 5 4 3 3 3 3 3 3 3 4 4 5 4 4 4 4 4 5 5 5 4 3 3 2 1
2 5 4 3 5 5 4 5 5 4 5 5 2 6 7 5 4 4 4 3 2 1 2 3 3 4 4 3 3 4 4 3 4 5 4 3 4 3 3 3 3 3 3 2
5 5 1 2 2 6 5 4 4 3 1 4 6 7 7 2 3 2 1 1 1 2 2 2 2 2 3 3 4 4 4 3 3 3 3 3 2 3 3 3 3 2 2 1
5 4 3 1 2 1 3 6 5 4 3 5 6 5 5 4 4 2 1 2 2 1 1 1 1 1 2 2 2 3 4 3 3 3 3 2 3 3 3 3 3 2 2 2
3 3 3 0 5 7 5 4 4 3 4 4 4 6 4 4 4 3 3 3 3 3 3 2 1 1 2 2 2 2 2 2 2 2 2 2 2 2 3 3 3 3 2 2
4 3 4 6 3 3 6 7 7 4 5 4 4 7 3 3 3 3 3 2 2 2 2 2 2 2 2 2 2 2 2 2 2 2 2 1 1 1 2 2 2 2 3 2
4 4 1 3 1 1 3 4 6 4 3 5 5 7 2 2 3 3 2 2 1 1 1 1 1 1 2 2 2 2 2 2 2 2 2 2 2 2 2 2 2 2 3 2
3 4 7 9 5 4 4 5 6 6 5 7 9 10 9 6 5 5 4 3 2 1 1 1 1 2 2 2 2 2 2 2 2 3 3 3 3 3 3 3 3 3 3 3
3 5 6 7 5 4 6 8 9 11 10 10 10 10 12 8 6 5 4 3 2 2 1 2 2 2 2 2 2 2 2 2 2 3 3 3 3 3 2 2 3 3 3 4
3 4 3 5 5 6 9 11 13 13 11 11 11 13 9 6 4 4 4 3 3 3 4 3 3 3 3 4 3 3 3 2 2 3 3 2 2 2 3 3 3 3 3 3
5 5 3 4 2 3 9 10 11 7 7 8 11 11 5 5 5 5 4 4 4 4 4 4 4 5 5 5 4 5 4 2 2 3 3 2 2 3 3 3 3 3 4 3
6 6 3 2 1 8 7 2 6 7 6 7 6 5 4 5 5 4 4 4 5 4 4 4 4 4 3 3 3 3 3 3 3 3 2 2 2 3 3 3 4 4 3 4
7 7 4 4 5 8 5 2 4 5 5 4 6 5 4 2 3 4 3 3 4 5 4 4 4 3 2 3 3 2 2 2 3 3 4 4 4 3 3 4 5 4 4 4
3 4 4 4 5 7 5 2 2 3 4 2 2 3 3 1 1 5 5 4 3 3 2 2 2 1 1 2 2 3 2 3 4 4 4 4 4 4 5 5 5 4 4 5
3 3 6 7 7 6 4 2 2 3 4 2 1 2 2 2 4 4 4 4 3 3 3 2 1 1 2 2 2 2 2 4 5 3 3 3 3 4 5 4 3 3 3 4
6 5 5 5 6 7 1 3 3 4 2 1 1 2 2 2 3 4 4 4 4 4 4 3 2 2 2 1 2 2 4 4 3 2 2 3 4 4 3 3 3 3 3 4
5 6 4 6 5 3 1 2 2 1 1 3 2 2 2 2 3 4 4 4 4 3 4 3 2 2 2 1 2 3 4 3 2 2 3 3 3 3 3 3 4 3 3 4
2 1 2 3 4 4 4 3 3 2 2 3 2 2 1 2 4 4 4 4 4 4 4 3 2 2 3 3 2 3 3 2 2 3 3 3 3 3 3 3 3 4 4 4
4 3 2 4 4 4 4 3 3 3 2 2 2 2 2 2 4 4 4 4 4 4 4 3 3 3 4 4 3 3 3 2 2 3 3 3 3 3 3 4 4 5 6 6
3 4 4 5 4 3 5 5 4 3 3 3 3 4 4 3 3 4 4 4 4 4 3 3 3 3 4 3 4 4 3 2 2 3 3 3 3 3 3 3 4 7 8 10
Wind_Direction
125 107 217 220 206 207 205 227 263 265 267 265 259 271 278 279 266 261 257 248 246 248 252 237 208 190 173 172 167 172 162 161 148 137 139 140 155 152 139 104 137 135 130 128
67 246 239 216 188 203 230 257 271 288 283 250 279 278 273 261 248 246 249 249 244 251 266 247 213 175 178 183 178 172 170 168 161 157 162 149 152 150 149 128 141 146 138 133
197 238 198 177 192 209 237 231 249 268 317 305 310 299 278 269 242 252 253 247 241 233 233 229 216 206 186 190 186 179 174 169 162 148 123 101 83 77 84 151 180 159 148 145
232 251 209 199 213 193 249 231 226 244 289 289 347 296 288 276 284 264 262 257 250 239 220 214 204 198 192 198 184 171 167 165 159 150 148 144 146 155 192 191 174 142 132 138
244 218 198 218 225 187 222 244 213 217 203 281 241 235 284 299 279 269 261 257 249 235 209 208 207 200 186 172 168 164 155 155 153 155 153 142 136 144 140 132 133 127 107 126
240 233 208 214 218 183 186 60 65 62 92 272 223 200 279 257 240 259 259 258 247 226 203 201 191 154 139 140 150 153 155 161 156 153 153 155 157 146 138 142 148 140 131 132
293 254 225 177 128 77 102 93 21 348 328 254 209 211 251 259 245 238 245 245 242 213 179 164 156 159 155 155 159 160 158 165 168 165 171 175 171 168 174 175 175 168 166 184
257 280 227 194 184 179 183 158 167 216 244 279 266 236 251 264 278 265 247 226 203 194 183 177 183 177 177 174 163 157 160 163 170 170 174 170 157 168 182 180 175 180 188 197
201 253 277 191 188 154 157 189 174 149 252 274 266 276 296 290 335 343 16 89 198 214 206 194 181 174 180 181 179 173 169 168 167 169 163 157 157 170 180 175 165 171 178 175
177 248 267 265 106 56 163 150 122 158 210 261 280 264 253 282 293 310 302 242 245 242 232 211 186 172 174 178 182 170 166 171 174 164 165 168 177 188 182 171 173 179 181 168
164 203 291 280 199 190 150 158 163 169 188 201 266 270 230 225 254 252 254 244 236 223 214 214 196 165 126 108 122 141 150 145 153 164 163 156 168 185 174 179 193 191 182 179
172 160 243 246 240 194 187 186 166 184 225 204 220 267 274 241 275 259 267 280 267 232 214 202 184 155 132 138 142 149 153 159 179 171 152 163 172 172 167 180 193 187 184 189
154 159 262 324 333 180 213 201 189 170 162 191 209 257 289 343 339 323 298 291 282 241 186 142 152 175 180 181 181 177 176 182 178 168 163 171 191 193 197 202 198 189 188 189
150 183 201 217 229 190 220 217 190 180 209 229 231 253 281 300 310 313 310 293 270 244 202 173 201 224 218 207 200 196 196 184 176 171 172 193 210 211 210 205 201 203 198 195
147 219 236 253 258 228 232 233 216 217 219 226 244 245 262 272 273 278 287 293 282 261 240 226 226 234 233 225 220 210 206 191 179 175 193 216 222 213 208 206 204 207 209 212
167 216 223 258 252 248 261 248 233 234 232 238 255 264 262 271 276 278 279 279 269 257 250 246 240 236 237 230 222 215 214 207 181 191 218 225 209 204 211 217 212 209 217 218
186 176 191 248 264 311 263 232 215 214 211 206 233 247 259 275 270 261 259 255 248 251 255 247 240 235 237 232 216 210 212 198 188 205 219 223 218 219 225 226 218 222 224 222
186 178 193 221 144 239 247 201 191 205 231 223 233 251 247 254 274 275 256 243 255 259 255 253 249 248 246 233 220 209 190 181 194 212 224 222 215 227 233 225 229 233 231 230
194 181 187 191 224 264 283 249 179 196 251 235 232 253 273 295 344 316 293 256 247 255 255 252 247 243 247 239 219 187 194 193 202 222 229 226 216 220 227 232 238 237 231 237
166 175 187 192 213 238 245 252 211 142 263 280 210 237 259 80 293 282 301 307 296 292 284 275 279 279 245 250 197 174 207 212 229 236 237 231 222 224 232 239 243 244 234 242
146 180 207 216 232 256 256 269 115 172 256 306 255 249 247 232 237 270 306 320 321 322 321 316 322 275 244 223 170 188 216 236 244 245 241 241 237 235 237 240 243 239 239 245
179 183 199 197 221 247 260 117 178 239 292 309 297 265 255 264 292 303 311 315 326 332 332 331 327 305 284 211 173 214 250 260 263 247 247 252 250 247 244 231 241 238 230 240
199 193 194 203 224 275 261 238 261 247 306 302 292 279 256 288 299 304 306 310 312 311 312 312 300 305 303 259 201 230 262 266 253 247 252 257 259 252 240 232 237 240 230 236
253 201 187 248 272 294 298 304 315 317 294 285 280 288 291 285 290 299 305 310 312 309 304 304 307 305 302 295 269 256 267 262 242 254 262 260 259 266 258 246 234 230 233 238
233 190 210 249 272 311 306 298 294 304 305 305 303 298 281 277 284 287 297 301 302 304 304 301 289 284 287 294 293 286 276 260 257 265 270 267 256 251 256 253 242 237 235 230
218 198 203 243 240 236 276 288 298 302 300 297 300 306 298 279 278 288 292 294 297 301 305 304 292 285 289 294 295 295 282 253 244 267 268 262 260 258 253 259 277 260 253 259
Height
1496 1501 1501 1499 1498 1498 1499 1501 1501 1497 1493 1493 1490 1486 1479 1476 1475 1474 1473 1473 1474 1474 1475 1476 1477 1478 1479 1481 1482 1484 1486 1488 1489 1492 1493 1495 1497 1499 1502 1504 1505 1506 1508 1509
1500 1499 1495 1495 1497 1499 1500 1500 1500 1495 1492 1492 1490 1484 1476 1472 1472 1470 1470 1470 1471 1471 1472 1473 1474 1475 1476 1478 1480 1481 1483 1486 1487 1489 1492 1493 1495 1497 1500 1502 1503 1504 1506 1507
1497 1494 1492 1494 1497 1498 1499 1499 1497 1496 1494 1492 1492 1483 1474 1469 1468 1467 1467 1467 1468 1469 1470 1471 1472 1473 1475 1476 1478 1480 1482 1484 1486 1488 1489 1492 1494 1495 1497 1499 1501 1502 1503 1505
1495 1492 1492 1493 1494 1495 1496 1493 1493 1494 1497 1498 1496 1493 1474 1469 1467 1464 1464 1464 1464 1466 1467 1469 1470 1471 1473 1475 1476 1478 1480 1482 1483 1485 1486 1488 1490 1492 1494 1497 1498 1500 1501 1502
1492 1490 1490 1490 1489 1491 1491 1490 1491 1493 1495 1498 1496 1496 1479 1471 1467 1463 1461 1461 1461 1463 1465 1466 1468 1470 1471 1473 1475 1476 1478 1480 1482 1483 1485 1487 1489 1491 1493 1495 1496 1498 1499 1500
1489 1487 1487 1486 1486 1487 1489 1491 1493 1496 1498 1497 1491 1494 1481 1472 1465 1461 1459 1459 1460 1461 1463 1465 1467 1468 1470 1471 1473 1475 1477 1479 1480 1482 1484 1485 1487 1489 1491 1493 1494 1495 1497 1498
1488 1485 1484 1484 1486 1487 1489 1494 1500 1499 1502 1494 1489 1490 1478 1463 1461 1459 1458 1458 1458 1459 1461 1463 1464 1466 1468 1469 1471 1473 1475 1477 1479 1480 1482 1484 1486 1488 1489 1491 1492 1493 1495 1496
1489 1488 1482 1481 1482 1486 1488 1490 1498 1499 1497 1494 1490 1487 1470 1460 1458 1457 1457 1457 1457 1458 1459 1461 1463 1465 1466 1468 1470 1472 1474 1475 1477 1479 1481 1482 1484 1486 1488 1489 1490 1491 1493 1494
1488 1485 1480 1479 1480 1482 1486 1490 1489 1496 1497 1497 1487 1479 1466 1458 1457 1456 1456 1456 1456 1457 1458 1460 1462 1464 1465 1467 1469 1471 1473 1474 1475 1477 1479 1480 1482 1483 1485 1487 1488 1489 1490 1491
1482 1484 1480 1480 1480 1481 1483 1486 1494 1495 1493 1489 1481 1477 1470 1460 1458 1457 1456 1456 1456 1457 1458 1459 1461 1462 1464 1466 1468 1470 1471 1473 1474 1476 1477 1478 1480 1481 1483 1484 1485 1487 1488 1489
1480 1484 1483 1481 1480 1480 1484 1486 1487 1492 1492 1490 1485 1473 1461 1459 1457 1456 1456 1455 1455 1455 1456 1458 1459 1461 1463 1465 1466 1468 1469 1471 1472 1474 1475 1476 1478 1479 1480 1482 1483 1484 1485 1486
1479 1484 1485 1481 1477 1477 1478 1479 1484 1487 1488 1491 1490 1474 1457 1457 1455 1454 1454 1454 1454 1455 1456 1457 1458 1460 1461 1462 1464 1466 1467 1468 1470 1472 1473 1474 1475 1476 1477 1479 1480 1481 1482 1483
1477 1482 1483 1479 1480 1480 1478 1477 1479 1481 1486 1490 1487 1470 1457 1455 1454 1453 1453 1453 1453 1454 1455 1456 1457 1458 1459 1461 1462 1464 1465 1466 1468 1469 1470 1471 1472 1473 1474 1475 1477 1478 1479 1480
1473 1477 1478 1474 1469 1473 1475 1475 1476 1479 1483 1481 1476 1464 1457 1455 1455 1454 1453 1452 1453 1453 1453 1454 1455 1456 1458 1459 1460 1461 1463 1464 1465 1466 1467 1468 1469 1470 1472 1473 1474 1475 1476 1477
1472 1476 1474 1471 1469 1471 1470 1470 1472 1473 1471 1471 1463 1462 1455 1454 1454 1453 1452 1451 1451 1451 1452 1452 1453 1455 1456 1457 1457 1458 1460 1461 1462 1463 1464 1465 1466 1467 1469 1470 1471 1472 1473 1473
1471 1473 1472 1471 1468 1468 1467 1464 1465 1464 1464 1463 1461 1458 1452 1452 1452 1451 1450 1449 1449 1449 1449 1450 1451 1452 1453 1454 1455 1455 1457 1458 1459 1460 1461 1462 1463 1464 1465 1466 1467 1468 1469 1469
1471 1473 1473 1471 1469 1467 1464 1456 1456 1457 1456 1457 1456 1452 1450 1451 1450 1449 1448 1447 1447 1447 1447 1448 1449 1449 1450 1451 1452 1453 1454 1455 1456 1457 1458 1459 1460 1460 1461 1462 1463 1464 1464 1465
1467 1469 1471 1472 1471 1470 1451 1449 1449 1451 1451 1451 1449 1448 1447 1447 1447 1447 1446 1446 1445 1445 1446 1446 1446 1447 1448 1448 1449 1450 1451 1452 1453 1454 1455 1455 1456 1457 1457 1458 1459 1459 1459 1460
1460 1464 1468 1470 1468 1458 1451 1448 1448 1450 1449 1447 1447 1446 1446 1446 1446 1445 1445 1444 1444 1444 1444 1444 1444 1444 1445 1445 1446 1446 1447 1448 1449 1450 1451 1452 1452 1453 1453 1454 1454 1454 1454 1454
1458 1460 1465 1466 1463 1457 1448 1445 1444 1447 1448 1444 1444 1445 1445 1445 1448 1446 1443 1442 1442 1441 1442 1441 1441 1442 1442 1442 1443 1443 1444 1444 1445 1446 1447 1448 1448 1449 1449 1449 1449 1449 1449 1449
1459 1461 1461 1460 1458 1451 1447 1444 1444 1450 1446 1443 1442 1443 1443 1443 1444 1443 1442 1441 1440 1439 1439 1439 1439 1439 1439 1439 1440 1440 1440 1441 1442 1442 1443 1443 1444 1444 1444 1444 1444 1444 1444 1444
1454 1457 1458 1457 1457 1452 1444 1444 1446 1445 1442 1441 1441 1441 1441 1441 1440 1440 1439 1438 1437 1437 1436 1436 1436 1436 1436 1436 1436 1436 1437 1437 1438 1438 1438 1439 1439 1439 1439 1439 1439 1439 1439 1438
1450 1450 1450 1451 1449 1444 1442 1442 1442 1442 1441 1441 1440 1440 1440 1439 1439 1438 1438 1437 1436 1435 1434 1434 1433 1433 1433 1433 1433 1433 1433 1434 1434 1434 1434 1434 1434 1434 1434 1434 1434 1434 1433 1433
1447 1446 1448 1448 1444 1442 1441 1441 1441 1441 1440 1439 1439 1439 1438 1437 1437 1436 1436 1435 1434 1433 1432 1431 1431 1430 1430 1430 1430 1430 1430 1430 1430 1429 1429 1429 1429 1429 1429 1429 1429 1428 1428 1427
1445 1445 1445 1445 1443 1441 1440 1440 1439 1439 1438 1438 1437 1437 1437 1436 1435 1434 1433 1433 1432 1431 1430 1429 1428 1427 1427 1427 1427 1427 1426 1426 1425 1425 1425 1425 1424 1424 1424 1423 1423 1423 1423 1422
1441 1442 1443 1441 1440 1441 1439 1438 1438 1437 1436 1436 1435 1434 1434 1434 1433 1432 1431 1430 1429 1428 1427 1426 1425 1424 1423 1423 1423 1423 1422 1421 1420 1420 1420 1419 1419 1419 1418 1418 1417 1417 1417 1417